Regional Weather Roundup
Issued by NWS

Home | Current Version | Previous Version | Text Only | Print | Product List | Glossary On
Versions: 1 2 3 4 5 6 7 8 9 10 11 12 13 14 15 16 17 18 19 20 21 22 23 24 25 26 27 28 29 30 31 32 33 34 35 36 37 38 39 40 41 42 43 44 45 46 47 48 49 50
000
ASUS43 KMPX 301810
RWRMN
WEATHER ROUNDUP FOR MINNESOTA
NATIONAL WEATHER SERVICE TWIN CITIES/CHANHASSEN MN
100 PM CDT SUN APR 30 2017


NOTE: "FAIR" INDICATES FEW OR NO CLOUDS BELOW 12,000 FEET WITH NO
SIGNIFICANT WEATHER AND/OR OBSTRUCTIONS TO VISIBILITY. N/A MEANS
CURRENT SKY AND/OR WEATHER CONDITIONS ARE NOT AVAILABLE.

MNZ060>063-068>070-301900-
   Twin Cities Metro

CITY           SKY/WX    TMP DP  RH WIND       PRES   REMARKS
TWIN CITIES    LGT RAIN  44  36  73 NE14G26   29.96F
6HR MIN TEMP:  42; 6HR MAX TEMP:  44; 6HR PCP:  0.03;

ST PAUL        LGT RAIN  44  38  79 NE13G18   29.98F
CRYSTAL        LGT RAIN  42  33  70 N13G21    29.97F
BLAINE         LGT RAIN  43  37  81 NE16      29.98F
LAKEVILLE      CLOUDY    41  36  81 NE17G25   29.93F
EDEN PRAIRIE   LGT RAIN  44  37  76 NE14G21   29.94F
6HR MIN TEMP:  43; 6HR MAX TEMP:  45; 6HR PCP:  0.03;

SOUTH ST PAUL  LGT RAIN  44  35  72 NE9       29.96F
LAKE ELMO      CLOUDY    43  37  81 NE9       29.98F
$$
MNZ001>005-007-008-013>017-022>024-027-028-301900-
   Northwest Minnesota

CITY           SKY/WX    TMP DP  RH WIND       PRES   REMARKS
BEMIDJI        MOSUNNY   54  22  28 E14       30.07F
HALLOCK        SUNNY     61  19  20 SE10G16   30.06F
ROSEAU         SUNNY     57  25  28 E10       30.08F
WARROAD        SUNNY     54  32  43 NE8       30.10F
THIEF RVR FALL SUNNY     56  22  26 SE17      30.06F
CROOKSTON      SUNNY     59  25  27 E10       30.05F
FOSSTON        MOSUNNY   57  19  23 E7        30.05F
DETROIT LAKES  CLOUDY    54  19  26 E14G21    30.03F
MOORHEAD       PTSUNNY   57  18  21 NE20      30.02F
PARK RAPIDS    CLOUDY    52  17  25 E10G21    30.03F
MAHNOMEN       FAIR      55  22  28 E15G23    30.02F
$$
MNZ006-009>011-018-025>026-301900-
   North Central Minnesota

CITY           SKY/WX    TMP DP  RH WIND       PRES   REMARKS
BAUDETTE       CLOUDY    55  19  24 SE10      30.10F
FLAG ISLAND    MOSUNNY   46  21  36 S3        30.11F
INTL FALLS     PTSUNNY   52  22  30 SE12      30.12F
6HR MIN TEMP:  29; 6HR MAX TEMP:  52;

WASKISH        MOSUNNY   55  23  28 E6        30.09F
BIG FORK       PTSUNNY   55  21  26 E12       30.10F
LONGVILLE      CLOUDY    54  23  30 SE10G16   30.06F
GRAND RAPIDS   CLOUDY    50  22  33 VRB7      30.10F
CRANE LAKE     PTSUNNY   52  19  28 CALM      30.15F
ORR            CLOUDY    54  16  22 SE5       30.09F
COOK           CLOUDY    52  21  30 E7        30.12F
WALKER         FAIR      48  23  37 E9        30.06F
$$
MNZ012-019>021-037-301900-
   Northeast Minnesota

CITY           SKY/WX    TMP DP  RH WIND       PRES   REMARKS
DULUTH         CLOUDY    45  27  49 E12       30.09F
6HR MIN TEMP:  38; 6HR MAX TEMP:  46;

ELY            CLOUDY    50  16  25 NE8       30.12F
HIBBING        CLOUDY    49  21  33 E15       30.10F
EVELETH        CLOUDY    53  10  17 E6        30.12F
DULUTH HARBOR  CLOUDY    39  36  87 NE21G26   30.12F
TWO HARBORS    MOSUNNY   48  34  57 E13       30.10F
SILVER BAY     MOSUNNY   45  28  53 NE12G18   30.12F
GRAND MARAIS     N/A     43  33  68 NE10      30.17F
G MARAIS ARPRT CLOUDY    45  18  33 E12G18    30.14F
$$
MNZ029>031-032-039>041-046>048-054>057-064-301900-
   West Central Minnesota

CITY           SKY/WX    TMP DP  RH WIND       PRES   REMARKS
FERGUS FALLS   PTSUNNY   54  21  28 E16G25    29.99F
WHEATON        CLOUDY    54  14  20 E16       29.98F
MORRIS         CLOUDY    52  25  35 E17G24    29.96F
ALEXANDRIA     PTSUNNY   49  25  39 E17       30.00F
ELBOW LAKE     FAIR      51  24  34 E14G20    29.99F
WADENA         PTSUNNY   52  25  35 E14G20    30.02F
GLENWOOD       PTSUNNY   48  27  43 NE16G24   29.98F
APPLETON       CLOUDY    48  21  34 E16       29.97F
BENSON         CLOUDY    50  16  25 E15G21    29.99F
ORTONVILLE     PTSUNNY   50  23  34 NE12G17   29.97F
MADISON        CLOUDY    50  25  37 NE15G21   29.96F
WILLMAR        LGT RAIN  41  36  81 NE14G21   29.98F
$$
MNZ033>034-036-042>043-049>051-058-059-301900-
   Central Minnesota

CITY           SKY/WX    TMP DP  RH WIND       PRES   REMARKS
ST CLOUD       LGT RAIN  44  30  57 NE16G25   30.01F
6HR MIN TEMP:  39; 6HR MAX TEMP:  45; 6HR PCP: TRACE;

SAUK CENTRE    FAIR      47  28  48 NE14      29.99F
PAYNESVILLE    CLOUDY    42  33  70 NE14G22   29.99F
AITKIN         CLOUDY    52  18  25 NE15      30.05F
PINE RIVER     CLOUDY    52  27  37 E16       30.08F
BRAINERD       CLOUDY    48  23  37 E14       30.05F
STAPLES        CLOUDY    48  19  32 E12G20    30.03F
LONG PRAIRIE   FAIR      46  28  49 N12G21    30.01F
LITTLE FALLS   CLOUDY    46  25  42 E9G18     30.04F
LITCHFIELD     LGT RAIN  43  34  70 NE17G24   29.97F
BUFFALO        LGT RAIN  41  33  73 N12G20    29.99F
MAPLE LAKE     CLOUDY    44  34  67 NE14G20   30.00F
HUTCHINSON     LGT RAIN  43  34  71 NE17G23   29.97F
$$
MNZ037-044-045-052-053-301900-
   East Central Minnesota

CITY           SKY/WX    TMP DP  RH WIND       PRES   REMARKS
PRINCETON      LGT RAIN  46  28  49 NE12      30.01F
MORA           CLOUDY    45  30  57 N6        30.03F
CAMBRIDGE      LGT RAIN  45  30  57 NE8       30.00F
RUSH CITY      CLOUDY    46  28  50 NE10      30.03F
MOOSE LAKE     CLOUDY    43  28  56 NE9       30.06F
HINCKLEY       CLOUDY    45  30  57 NE9G16    30.05F
CLOQUET        CLOUDY    48  23  37 E9G17     30.09S
MCGREGOR       CLOUDY    50  27  40 E14       30.07F
$$
MNZ071>073-080-081-089-090-097-098-301900-
   Southwest Minnesota

CITY           SKY/WX    TMP DP  RH WIND       PRES   REMARKS
MONTEVIDEO     LGT RAIN  43  34  70 E15       29.97F
GRANITE FALLS  CLOUDY    42  37  81 N20       29.96F
CANBY          CLOUDY    47  24  40 NE17      29.94F
MARSHALL       CLOUDY    41  35  79 NE21G26   29.91F
REDWOOD FALLS  CLOUDY    41  34  76 NE15G24   29.93F
OLIVIA         CLOUDY    41  36  81 NE20      29.95F
PIPESTONE      RAIN      39  32  75 NE22G30   29.85F
WINDOM         LGT RAIN  39  36  87 N17G24    29.87F
WORTHINGTON    LGT RAIN  37  35  92 NE24G35   29.81F
JACKSON        LGT SNOW  36  36 100 NE21G31   29.85F
TRACY          DRIZZLE   41  38  91 NE21      29.90F
SLAYTON        LGT RAIN  37  36  96 NE17G26   29.86F
$$
MNZ065>067-074>077-082>085-091>093-301900-
   South Central Minnesota

CITY           SKY/WX    TMP DP  RH WIND       PRES   REMARKS
MANKATO        CLOUDY    41  35  79 NE21      29.89F
NEW ULM        CLOUDY    41  34  75 NE12G24   29.91F
ST JAMES       LGT RAIN  39  37  93 N16G22    29.89F
FAIRMONT       LGT RAIN  40  36  86 NE21      29.84F
GLENCOE        DRIZZLE   42  37  81 NE14G22   29.94F
FARIBAULT      CLOUDY    43  37  81 N12G22    29.90F
OWATONNA       CLOUDY    43  34  70 NE17G25   29.88F
WASECA         CLOUDY    41  34  75 NE16G26   29.89F
ALBERT LEA     CLOUDY    43  34  70 E16G23    29.84F
$$
MNZ078>079-086>088-094>096-301900-
   Southeast Minnesota

CITY           SKY/WX    TMP DP  RH WIND       PRES   REMARKS
ROCHESTER      CLOUDY    43  35  73 NE22      29.87F
6HR MIN TEMP:  40; 6HR MAX TEMP:  43; 6HR PCP: TRACE;

RED WING       DRIZZLE   46  32  57 E8        29.92F
STANTON        CLOUDY    45  35  69 NE20      29.90F
DODGE CENTER   CLOUDY    43  36  75 NE18G25   29.87F
WINONA         CLOUDY    45  37  76 E9G20     29.90F
AUSTIN         CLOUDY    43  36  75 NE18G26   29.85F
PRESTON        CLOUDY    41  35  77 NE13G21   29.86F
$$
ABBREVIATIONS USED IN REMARKS
   TC - TEMPERATURES IN CELSIUS
  WCI - WIND CHILL INDEX
   HX - HEAT INDEX
  VSB - VISIBILITY
$$



USA.gov is the U.S. government's official web portal to all federal, state and local government web resources and services.